Location: Castro Valley
(37.6940°N, 122.0850°W)
Time: 13:02:58
(UTC-08:00)

N. Korean satellite - Visible Passes

Search period start: 27 February 2020 00:00
Search period end: 08 March 2020 00:00
Orbit: 456 x 505 km, 97.2° (Epoch: 26 February)

Date Brightness Start Highest point End Pass type
(mag) Time Alt. Az. Time Alt. Az. Time Alt. Az.
27 Feb 7.7 05:36:18 10° NNE 05:39:54 49° E 05:43:26 10° S visible
28 Feb 9.3 05:11:18 10° NE 05:14:16 22° E 05:17:10 10° SSE visible
29 Feb 10.2 04:47:39 10° ENE 04:48:31 11° E 04:49:23 10° ESE visible
01 Mar 6.6 05:52:54 10° NNE 05:56:37 87° ESE 06:00:14 10° SSW visible
02 Mar 8.3 05:27:35 10° NNE 05:31:01 37° E 05:34:24 10° SSE visible
03 Mar 9.7 05:02:50 10° NE 05:05:21 17° E 05:07:49 10° SE visible
05 Mar 7.1 05:44:06 10° NNE 05:47:44 65° E 05:51:18 10° S visible
06 Mar 8.9 05:18:56 10° NE 05:22:07 28° E 05:25:14 10° SSE visible
07 Mar 9.9 04:54:33 10° ENE 04:56:24 13° E 04:58:13 10° ESE visible
